マクノート彗星

C/2011 C1 ( McNaught )

English version
Home page
Updated on December 15, 2011

---------------------------------------------------------------------

・ プロフィール

発見日 2011年2月10日
発見光度 17.0等
発見者 R. H. McNaught (Siding Spring)

・ 写真集

・ 軌道要素

Epoch 2011 Apr. 29.0 TT = JDT 2455680.5
T 2011 Apr. 18.00239 TT                                 MPC
q   0.8833787            (2000.0)            P               Q
z  +0.0029065      Peri.   84.47389     +0.11117004     +0.99184382
 +/-0.0000017      Node   192.43829     -0.98724195     +0.10302272
e   0.9974325      Incl.   16.82566     -0.11399366     +0.07504772
From 558 observations 2011 Feb. 10-Nov. 18, mean residual 0".5.

・ 星図

・ 光度変化

        m1 = 10.0 + 5 logΔ + 25.0 log r(t - 5)  [ ,5]  (              〜2011年 4月23日)
        m1 =  9.7 + 5 logΔ + 20.0 log r(t - 5)  [5, ]  (2011年 4月23日〜              )

---------------------------------------------------------------------

軌道要素はM.P.E.C. 2011-W48に掲載されたものです。
星図はステラナビゲータ Ver.8 (アストロアーツ) で作成したものです。
光度グラフはComet for Windowsで作成したものです。

---------------------------------------------------------------------

Copyright(C) Seiichi Yoshida (comet@aerith.net). All rights reserved.